timestamp,wind_dir_avg,wind_spd_avg,wind_spd_max_dir,wind_spd_gust,battery_voltage,lat,long
2023-06-22 00:04:01+00:00,211.0,7.36,213.0,8.03,13.21,47.59359,-54.27349
2023-06-22 00:14:01+00:00,209.0,7.28,211.0,7.98,12.65,47.59359,-54.27349
2023-06-22 00:24:01+00:00,207.0,6.42,208.0,7.06,12.65,47.59359,-54.27349
2023-06-22 00:34:01+00:00,212.0,5.69,213.0,6.47,12.65,47.59359,-54.27349
2023-06-22 00:44:01+00:00,214.0,6.32,214.0,6.98,12.65,47.59359,-54.27349
2023-06-22 00:54:01+00:00,211.0,5.68,213.0,6.31,12.65,47.59359,-54.27349
2023-06-22 01:04:01+00:00,209.0,5.44,213.0,6.21,12.65,47.59359,-54.27349
2023-06-22 01:14:00+00:00,212.0,5.61,212.0,6.1,12.41,47.59359,-54.27349
2023-06-22 01:24:00+00:00,211.0,4.18,209.0,4.63,12.41,47.59359,-54.27349
2023-06-22 01:34:00+00:00,210.0,3.95,216.0,4.37,12.41,47.59359,-54.27349
2023-06-22 01:44:00+00:00,216.0,3.24,216.0,3.5,12.41,47.59359,-54.27349
2023-06-22 01:54:00+00:00,212.0,3.84,215.0,4.74,12.41,47.59359,-54.27349
2023-06-22 02:04:00+00:00,215.0,3.55,216.0,3.76,12.41,47.59359,-54.27349
2023-06-22 02:14:00+00:00,212.0,3.34,217.0,3.68,12.33,47.59359,-54.27349
2023-06-22 02:24:00+00:00,202.0,2.92,200.0,3.5,12.33,47.59359,-54.27349
2023-06-22 02:34:00+00:00,185.0,2.7,196.0,3.21,12.33,47.59359,-54.27349
2023-06-22 02:44:00+00:00,209.0,1.72,213.0,2.82,12.33,47.59359,-54.27349
2023-06-22 02:54:00+00:00,188.0,1.83,198.0,2.28,12.33,47.59359,-54.27349
2023-06-22 03:04:00+00:00,185.0,2.0,183.0,2.53,12.33,47.59359,-54.27349
2023-06-22 03:14:00+00:00,157.0,2.33,151.0,2.55,12.33,47.59359,-54.27349
2023-06-22 03:24:00+00:00,135.0,2.72,137.0,3.11,12.33,47.59359,-54.27349
2023-06-22 03:34:00+00:00,160.0,2.07,158.0,2.36,12.33,47.59359,-54.27349
2023-06-22 03:44:00+00:00,174.0,2.68,175.0,2.78,12.33,47.59359,-54.27349
2023-06-22 03:54:00+00:00,173.0,2.39,176.0,2.65,12.33,47.59359,-54.27349
2023-06-22 04:04:00+00:00,189.0,2.93,189.0,3.38,12.33,47.59359,-54.27349
2023-06-22 05:14:01+00:00,206.0,1.56,181.0,1.95,12.25,47.59359,-54.27349
2023-06-22 05:24:01+00:00,239.0,2.41,242.0,2.99,12.25,47.59359,-54.27349
2023-06-22 05:34:01+00:00,246.0,1.43,257.0,2.19,12.25,47.59359,-54.27349
2023-06-22 05:44:01+00:00,210.0,2.57,206.0,3.07,12.25,47.59359,-54.27349
2023-06-22 05:54:01+00:00,201.0,3.01,202.0,3.45,12.25,47.59359,-54.27349
2023-06-22 06:04:01+00:00,202.0,4.02,201.0,4.64,12.25,47.59359,-54.27349
2023-06-22 06:14:01+00:00,205.0,4.53,201.0,5.43,12.25,47.59359,-54.27349
2023-06-22 06:24:01+00:00,210.0,5.59,206.0,6.62,12.25,47.59359,-54.27349
2023-06-22 06:34:01+00:00,205.0,6.26,206.0,6.92,12.25,47.59359,-54.27349
2023-06-22 06:44:01+00:00,202.0,6.13,204.0,6.76,12.25,47.59359,-54.27349
2023-06-22 06:54:01+00:00,201.0,5.43,204.0,5.98,12.25,47.59359,-54.27349
2023-06-22 07:04:01+00:00,203.0,5.77,197.0,6.63,12.25,47.59359,-54.27349
2023-06-22 07:14:01+00:00,196.0,6.3,193.0,7.53,12.25,47.59359,-54.27349
2023-06-22 07:24:01+00:00,190.0,5.39,194.0,6.23,12.25,47.59359,-54.27349
2023-06-22 07:34:01+00:00,188.0,5.97,188.0,7.21,12.25,47.59359,-54.27349
2023-06-22 07:44:01+00:00,181.0,5.67,179.0,6.52,12.25,47.59359,-54.27349
2023-06-22 07:54:01+00:00,193.0,4.16,197.0,4.84,12.25,47.59359,-54.27349
2023-06-22 08:04:01+00:00,201.0,3.63,193.0,4.28,12.25,47.59359,-54.27349
2023-06-22 08:14:01+00:00,181.0,3.06,185.0,3.89,12.25,47.59359,-54.27349
2023-06-22 08:24:01+00:00,207.0,3.8,209.0,4.59,12.25,47.59359,-54.27349
2023-06-22 08:34:01+00:00,219.0,2.92,204.0,4.75,12.25,47.59359,-54.27349
2023-06-22 08:44:01+00:00,234.0,2.6,229.0,3.38,12.25,47.59359,-54.27349
2023-06-22 08:54:01+00:00,238.0,0.71,253.0,1.35,12.25,47.59359,-54.27349
2023-06-22 09:04:01+00:00,200.0,2.16,205.0,2.87,12.25,47.59359,-54.27349
2023-06-22 09:14:01+00:00,257.0,2.87,251.0,3.68,12.57,47.59359,-54.27349
2023-06-22 09:24:01+00:00,263.0,1.9,284.0,3.1,12.57,47.59359,-54.27349
2023-06-22 09:34:01+00:00,190.0,2.46,182.0,3.46,12.57,47.59359,-54.27349
2023-06-22 09:44:01+00:00,161.0,2.13,160.0,2.99,12.57,47.59359,-54.27349
2023-06-22 09:54:01+00:00,146.0,0.78,172.0,1.69,12.57,47.59359,-54.27349
2023-06-22 10:04:01+00:00,257.0,1.59,260.0,1.97,12.57,47.59359,-54.27349
2023-06-22 10:14:01+00:00,251.0,1.96,248.0,2.22,13.21,47.59359,-54.27349
2023-06-22 10:24:01+00:00,195.0,1.02,185.0,1.45,13.21,47.59359,-54.27349
2023-06-22 10:34:01+00:00,164.0,1.23,167.0,1.48,13.21,47.59359,-54.27349
2023-06-22 10:44:01+00:00,173.0,1.17,166.0,1.84,13.21,47.59359,-54.27349
2023-06-22 10:54:01+00:00,159.0,1.89,161.0,2.22,13.21,47.59359,-54.27349
2023-06-22 11:04:01+00:00,143.0,2.6,145.0,3.01,13.21,47.59359,-54.27349
2023-06-22 11:14:01+00:00,167.0,1.11,155.0,1.68,13.53,47.59359,-54.27349
2023-06-22 11:24:01+00:00,262.0,0.57,231.0,1.25,13.53,47.59359,-54.27349
2023-06-22 11:34:01+00:00,75.0,0.46,60.0,0.66,13.53,47.59359,-54.27349
2023-06-22 11:44:01+00:00,151.0,1.71,150.0,2.08,13.53,47.59359,-54.27349
2023-06-22 11:54:01+00:00,177.0,2.15,177.0,2.42,13.53,47.59359,-54.27349
2023-06-22 12:04:01+00:00,193.0,1.2,191.0,1.35,13.53,47.59359,-54.27349
2023-06-22 12:14:00+00:00,184.0,0.99,201.0,1.31,13.53,47.59359,-54.27349
2023-06-22 12:24:00+00:00,203.0,1.67,211.0,2.07,13.53,47.59359,-54.27349
2023-06-22 12:34:00+00:00,167.0,2.09,179.0,2.53,13.53,47.59359,-54.27349
2023-06-22 12:44:00+00:00,187.0,3.11,186.0,3.47,13.53,47.59359,-54.27349
2023-06-22 12:54:00+00:00,289.0,2.92,292.0,4.18,13.53,47.59359,-54.27349
2023-06-22 13:04:00+00:00,190.0,2.29,186.0,3.29,13.53,47.59359,-54.27349
2023-06-22 13:14:00+00:00,235.0,2.09,233.0,2.5,13.68,47.59359,-54.27349
2023-06-22 13:24:00+00:00,268.0,1.96,272.0,2.66,13.68,47.59359,-54.27349
2023-06-22 13:34:00+00:00,243.0,1.59,277.0,2.48,13.68,47.59359,-54.27349
2023-06-22 13:44:00+00:00,207.0,2.69,213.0,2.91,13.68,47.59359,-54.27349
2023-06-22 13:54:00+00:00,207.0,4.08,208.0,4.75,13.68,47.59359,-54.27349
2023-06-22 14:04:00+00:00,199.0,3.76,203.0,4.32,13.68,47.59359,-54.27349
2023-06-22 14:14:00+00:00,198.0,4.2,199.0,4.45,14.32,47.59359,-54.27349
2023-06-22 14:24:00+00:00,198.0,6.28,200.0,6.59,14.32,47.59359,-54.27349
2023-06-22 14:34:00+00:00,204.0,6.21,206.0,6.39,14.32,47.59359,-54.27349
2023-06-22 14:44:00+00:00,213.0,5.97,214.0,6.17,14.32,47.59359,-54.27349
2023-06-22 14:54:00+00:00,210.0,5.98,211.0,6.33,14.32,47.59359,-54.27349
2023-06-22 15:04:00+00:00,212.0,4.78,212.0,5.02,14.32,47.59359,-54.27349
2023-06-22 15:14:00+00:00,218.0,5.96,221.0,6.43,13.76,47.59359,-54.27349
2023-06-22 15:24:00+00:00,211.0,5.99,211.0,6.31,13.76,47.59359,-54.27349
2023-06-22 15:34:00+00:00,211.0,6.3,211.0,6.98,13.76,47.59359,-54.27349
2023-06-22 15:44:00+00:00,204.0,5.46,208.0,5.83,13.76,47.59359,-54.27349
2023-06-22 15:54:00+00:00,210.0,6.82,211.0,7.08,13.76,47.59359,-54.27349
2023-06-22 16:04:00+00:00,207.0,7.0,206.0,7.39,13.76,47.59359,-54.27349
2023-06-22 16:14:01+00:00,209.0,7.15,210.0,7.55,14.08,47.59359,-54.27349
2023-06-22 16:24:01+00:00,207.0,6.63,209.0,7.12,14.08,47.59359,-54.27349
2023-06-22 16:34:01+00:00,212.0,7.32,212.0,7.59,14.08,47.59359,-54.27349
2023-06-22 16:44:01+00:00,210.0,7.76,211.0,8.71,14.08,47.59359,-54.27349
2023-06-22 16:54:01+00:00,204.0,8.23,204.0,8.59,14.08,47.59359,-54.27349
2023-06-22 17:04:01+00:00,207.0,7.78,206.0,8.3,14.08,47.59359,-54.27349
2023-06-22 17:14:00+00:00,206.0,8.41,206.0,8.88,14.08,47.59359,-54.27349
2023-06-22 17:24:00+00:00,205.0,8.29,206.0,8.61,14.08,47.59359,-54.27349
2023-06-22 17:34:00+00:00,204.0,8.93,205.0,9.3,14.08,47.59359,-54.27349
2023-06-22 17:44:00+00:00,201.0,7.83,200.0,8.47,14.08,47.59359,-54.27349
2023-06-22 17:54:00+00:00,200.0,6.74,201.0,7.15,14.08,47.59359,-54.27349
2023-06-22 18:04:00+00:00,204.0,6.47,203.0,7.09,14.08,47.59359,-54.27349
2023-06-22 18:14:01+00:00,202.0,7.53,199.0,8.06,13.6,47.59359,-54.27349
2023-06-22 18:24:01+00:00,201.0,7.18,203.0,7.92,13.6,47.59359,-54.27349
2023-06-22 18:34:01+00:00,204.0,7.3,204.0,7.78,13.6,47.59359,-54.27349
2023-06-22 18:44:01+00:00,205.0,6.73,206.0,7.12,13.6,47.59359,-54.27349
2023-06-22 18:54:01+00:00,209.0,4.74,208.0,5.19,13.6,47.59359,-54.27349
2023-06-22 19:04:01+00:00,215.0,6.02,215.0,6.56,13.6,47.59359,-54.27349
2023-06-22 19:14:00+00:00,215.0,4.33,214.0,4.96,12.97,47.59359,-54.27349
2023-06-22 19:24:00+00:00,196.0,4.61,199.0,4.98,12.97,47.59359,-54.27349
2023-06-22 19:34:00+00:00,201.0,5.23,204.0,5.53,12.97,47.59359,-54.27349
2023-06-22 19:44:00+00:00,201.0,5.84,201.0,6.24,12.97,47.59359,-54.27349
2023-06-22 19:54:00+00:00,199.0,5.47,199.0,5.75,12.97,47.59359,-54.27349
2023-06-22 20:04:00+00:00,204.0,4.8,209.0,5.04,12.97,47.59359,-54.27349
2023-06-22 20:14:00+00:00,200.0,4.45,203.0,4.68,12.81,47.59359,-54.27349
2023-06-22 20:24:00+00:00,192.0,4.42,196.0,4.61,12.81,47.59359,-54.27349
2023-06-22 20:34:00+00:00,176.0,2.08,184.0,2.83,12.81,47.59359,-54.27349
2023-06-22 20:44:00+00:00,177.0,1.89,180.0,2.12,12.81,47.59359,-54.27349
2023-06-22 20:54:00+00:00,191.0,3.43,194.0,3.81,12.81,47.59359,-54.27349
2023-06-22 21:04:00+00:00,189.0,3.45,189.0,3.64,12.81,47.59359,-54.27349
2023-06-22 21:14:01+00:00,201.0,3.13,202.0,3.45,13.37,47.59359,-54.27349
2023-06-22 21:24:01+00:00,198.0,2.87,196.0,3.65,13.37,47.59359,-54.27349
2023-06-22 21:34:01+00:00,207.0,4.86,205.0,5.4,13.37,47.59359,-54.27349
2023-06-22 21:44:01+00:00,204.0,4.21,211.0,4.46,13.37,47.59359,-54.27349
2023-06-22 21:54:01+00:00,187.0,3.02,191.0,3.57,13.37,47.59359,-54.27349
2023-06-22 22:04:01+00:00,221.0,2.55,225.0,3.09,13.37,47.59359,-54.27349
2023-06-22 22:14:01+00:00,220.0,2.07,222.0,2.96,13.21,47.59359,-54.27349
2023-06-22 22:24:01+00:00,207.0,2.73,204.0,3.17,13.21,47.59359,-54.27349
2023-06-22 22:34:01+00:00,214.0,4.19,215.0,5.2,13.21,47.59359,-54.27349
2023-06-22 22:44:01+00:00,210.0,3.88,214.0,4.86,13.21,47.59359,-54.27349
2023-06-22 22:54:01+00:00,203.0,3.31,211.0,3.67,13.21,47.59359,-54.27349
2023-06-22 23:04:01+00:00,199.0,2.69,196.0,3.25,13.21,47.59359,-54.27349
2023-06-22 23:14:00+00:00,199.0,2.52,206.0,3.15,12.97,47.59359,-54.27349
2023-06-22 23:24:00+00:00,212.0,3.23,215.0,4.33,12.97,47.59359,-54.27349
2023-06-22 23:34:00+00:00,233.0,4.14,235.0,4.65,12.97,47.59359,-54.27349
2023-06-22 23:44:00+00:00,229.0,4.57,229.0,4.97,12.97,47.59359,-54.27349
2023-06-22 23:54:00+00:00,231.0,4.3,229.0,5.31,12.97,47.59359,-54.27349
